Flag for Canada Weather past 2 weeks in Halifax, Nova Scotia, Canada

Now
32 °F

Low clouds.


Feels Like: 21 °F
Forecast: 31 / 38 °F
Wind: 17 mph from North

Location: Halifax International Airport

Current Time: Dec 20, 2014 at 11:22:06 AM

Latest Report: Dec 20, 2014 at 11:00 AM


Visibility: 15 mi

Pressure: 30.19 "Hg

Humidity: 87%

Dew point: 28 °F

Location of HalifaxLocation

Historic Weather in Halifax — Graph

°F

Halifax temperature yesterday

Maximum temperature yesterday: 32 °F (at 12:00 AM)
Minimum temperature yesterday: 28 °F (at 7:00 PM)
Average temperature yesterday: 31 °F

Past Weeks' High & Low Weather Summary

 TemperatureHumidityPressure
High52 °F (Dec 11, 11:00 AM)100% (Dec 6, 3:00 PM)30.78 "Hg (Dec 6, 3:00 PM)
Low10 °F (Dec 8, 5:00 AM)42% (Dec 5, 2:00 PM)29.36 "Hg (Dec 18, 3:00 PM)
Average34 °F90%29.99 "Hg
* Reported Dec 5 10:00 AM — Dec 20 10:00 AM, Halifax, Weather by CustomWeather, © 2014

Note: Actual official high and low records may vary slightly from our data, if they occured in-between our weather recording intervals... More about our weather records

Advertising

Halifax weather history for previous 24 hours

 ConditionsComfort  
Time TempWeatherWind HumidityBarometerVisibility
10:00 AM
Dec 20
30 °FScattered showers. Mostly cloudy.12 mph93%30.18 "Hg15 mi
9:00 AM30 °FScattered showers. Mostly cloudy.14 mph93%30.16 "Hg15 mi
8:00 AM28 °FLow clouds.12 mph100%30.14 "Hg15 mi
7:00 AM28 °FSnow flurries. Low clouds.12 mph93%30.11 "Hg8 mi
6:00 AM28 °FPassing clouds.14 mph86%30.09 "Hg15 mi
5:00 AM28 °FMostly cloudy.16 mph86%30.07 "Hg15 mi
4:00 AM28 °FPassing clouds.10 mph86%30.06 "Hg15 mi
3:00 AM28 °FSnow flurries. Overcast.17 mph86%30.03 "Hg15 mi
2:00 AM28 °FSnow flurries. Overcast.16 mph93%30.01 "Hg15 mi
1:00 AM28 °FMostly cloudy.15 mph93%29.98 "Hg15 mi
12:00 AM28 °FPassing clouds.14 mph93%29.95 "Hg15 mi
11:00 PM
Dec 19
28 °FPassing clouds.12 mph93%29.94 "Hg15 mi
10:00 PM28 °FSnow flurries. Mostly cloudy.12 mph93%29.92 "Hg14 mi
9:00 PM28 °FSnow flurries. Overcast.14 mph93%29.89 "Hg15 mi
8:00 PM28 °FSnow flurries. Low clouds.12 mph100%29.87 "Hg6 mi
7:00 PM28 °FSnow flurries. Low clouds.10 mph100%29.85 "Hg4 mi
6:00 PM30 °FSnow flurries. Low clouds.12 mph93%29.81 "Hg1 mi
5:00 PM30 °FSnow flurries. Mostly cloudy.13 mph93%29.78 "Hg2 mi
4:00 PM32 °FSnow flurries. Partly sunny.16 mph87%29.75 "Hg10 mi
3:45 PM32 °FSnow flurries. More clouds than sun.15 mph87%29.75 "Hg10 mi
3:00 PM32 °FSnow flurries. Partly sunny.17 mph87%29.72 "Hg4 mi
2:48 PM32 °FSnow flurries. Partly sunny.14 mph87%29.71 "Hg5 mi
2:00 PM32 °FSnow flurries. Partly sunny.16 mph87%29.69 "Hg12 mi
1:00 PM32 °FPartly sunny.17 mph87%29.69 "Hg12 mi
12:00 PM32 °FPartly sunny.18 mph87%29.67 "Hg15 mi
11:00 AM32 °FSnow flurries. Partly sunny.16 mph93%29.67 "Hg15 mi
Weather by CustomWeather, © 2014

See weather overviewHow to use our weather pages